Tracking 17694 objects as of 27-May-2016
HD Live streaming from Space Station
objects crossing your sky now

GOES 4 AKM

Track GOES 4 AKM now!


NORAD ID: 11970
Int'l Code: 1980-074C
Perigee: 33,786.2 km
Apogee: 50,272.1 km
Inclination: 23.6 °
Period: 1,766.2 minutes
Semi major axis: 48400 km
RCS: 0.003 m2 (small)
Launch date: September 9, 1980
Source: United States (US)
Launch site: AIR FORCE EASTERN TEST RANGE (AFETR)

Note: This is a ROCKET BODY
Your satellite tracking list
Your tracking list is empty





NASA's NSSDC Master Catalog

Two Line Element Set (TLE):
1 11970U 80074C   16147.13496102 -.00000192  00000-0  00000+0 0  9994
2 11970  23.5933 345.9982 1703089 181.8534  32.4230  0.81532947106294
Source of the keplerian elements: AFSPC

N2YO: 810